User: anonymous   Login
Location: Austin
(30.3000°N, 97.7500°W)
Time: 04:49:55
(UTC-05:00)
Language:

SL-08 R/B - Orbit

View from above orbital plane
View from above orbital plane
View from above satellite
View from above satellite

Ground track
Ground track

The orbit is defined by the following mean orbital elements,

1 27535U          26128.13830294 +.00000000 +00000-0 +73437-4 0 00002
2 27535  82.9329 340.0071 0037082  17.7505 100.1295 13.74694411    05
Epoch (UTC): 08 May 2026 03:19:09
Eccentricity: 0.0037082
inclination: 82.9329°
perigee height: 955 km
apogee height: 1010 km
right ascension of ascending node: 340.0071°
argument of perigee: 17.7505°
revolutions per day: 13.74694411
mean anomaly at epoch: 100.1295°

The dashed part of the orbit path shows where the satellite is in the earth's shadow,  

DLR